Location: Saratoga Springs
(43.0831°N, 73.7850°W)
Time: 18:35:58
(UTC-04:00)

Vanguard 2 - Pass Details

Date: 21 April 2024
Orbit: 553 x 2914 km, 32.9° (Epoch: 19 May)

Event Time Altitude Azimuth Distance (km) Brightness Sun altitude
Rises 23:21:21 0° 187° (S) 5,013 - -30.7°
Reaches altitude 10° 23:25:59 10° 169° (SSE) 4,452 - -31.1°
Maximum altitude 23:33:30 18° 132° (SE) 4,406 - -31.6°
Exits shadow 23:40:44 12° 103° (ESE) 5,232 11.4 -32.1°
Drops below altitude 10° 23:42:29 10° 98° (E) 5,511 11.6 -32.2°
Sets 23:49:18 0° 83° (E) 6,723 12.2 -32.6°
